Wind_Speed
1 9 5 7 2 2 3 2 2 5 1 5 2 4 4 9 10 11 12 16 16 17 16 17 19 20 20 20 21 22 23 25 25 25 23 23 22 19 18 19 20 21 23 23
8 6 5 2 0 2 2 4 8 7 3 4 5 7 7 7 8 12 11 12 14 16 17 18 19 20 22 23 24 25 26 26 28 28 27 24 22 22 20 20 22 24 24 25
6 5 3 3 2 5 6 8 7 7 2 3 5 11 10 8 5 7 10 9 11 13 15 16 18 20 21 24 25 25 26 27 28 29 25 25 26 25 26 27 27 27 29 27
2 2 4 3 3 6 8 6 5 4 6 5 6 8 6 6 8 8 8 10 11 12 13 13 15 15 21 21 20 22 25 26 28 31 30 32 30 33 36 28 25 26 29 33
6 6 7 5 4 3 7 3 4 2 3 7 7 7 10 7 9 10 12 11 10 9 11 11 13 14 13 14 16 18 20 21 22 25 29 29 33 32 27 28 37 34 33 31
9 7 7 4 2 4 3 4 3 4 4 3 6 8 9 12 9 11 11 10 9 9 9 10 11 11 11 11 12 13 14 15 16 19 22 26 32 34 29 28 28 31 36 32
5 7 2 5 9 6 8 14 5 3 4 9 5 6 7 6 5 5 7 11 11 10 11 11 12 11 10 10 8 9 10 10 11 14 16 19 22 24 29 31 29 31 30 33
4 9 6 4 5 7 3 9 5 4 4 5 4 1 7 3 2 7 9 12 9 12 14 13 12 12 11 8 5 3 1 4 9 9 10 12 15 18 20 24 26 27 28 30
5 6 4 1 4 5 6 5 9 9 6 7 4 3 9 6 3 3 6 12 17 16 15 14 14 13 12 10 7 3 3 8 13 14 14 14 15 15 18 21 25 25 27 27
4 3 3 3 4 5 7 4 8 3 5 7 3 5 3 5 8 9 8 9 14 14 14 15 15 15 12 12 8 5 6 7 11 13 15 18 19 19 19 20 23 25 26 27
5 6 7 7 6 7 2 5 2 6 5 9 9 4 7 4 9 12 15 13 13 16 15 17 16 15 14 11 7 4 7 9 12 14 15 16 20 21 23 22 21 21 23 25
6 4 4 6 4 0 4 4 9 5 5 2 7 12 3 3 11 14 17 19 19 15 17 17 18 17 14 11 7 5 7 11 14 14 15 17 20 21 20 20 20 20 22 22
5 7 7 6 11 6 5 0 6 7 8 11 8 9 3 11 16 13 16 16 17 18 14 18 19 16 12 9 7 5 8 12 15 16 17 19 21 22 22 25 23 21 20 20
3 9 9 10 12 8 11 7 6 11 9 12 13 16 13 11 11 13 16 19 19 13 11 16 18 15 11 9 7 6 8 11 15 17 19 21 23 24 24 25 23 18 17 16
5 10 7 13 9 9 13 14 14 15 15 16 18 18 17 13 14 17 17 17 15 10 7 13 16 13 8 7 6 7 9 12 15 18 22 23 23 26 25 25 22 18 15 15
3 7 6 13 15 14 15 19 19 19 18 17 16 14 11 19 17 14 16 15 12 8 7 11 12 10 8 7 6 9 11 16 17 19 22 21 25 26 25 27 25 19 15 15
5 7 8 15 18 11 16 18 10 11 11 10 10 13 12 13 16 17 18 17 14 9 7 10 10 10 9 7 10 11 12 14 18 21 22 23 23 22 22 24 24 18 16 13
6 6 7 12 12 17 3 6 5 6 7 7 6 9 12 15 19 21 13 15 15 11 8 9 9 9 7 9 13 13 14 17 21 22 20 22 20 22 21 23 22 17 17 16
6 7 8 8 12 14 13 3 3 5 2 7 9 12 19 22 24 20 14 17 14 11 9 9 7 6 8 14 14 14 19 18 19 21 19 20 20 21 20 19 18 17 16 15
3 4 8 12 13 14 4 5 6 2 10 10 15 18 22 25 15 12 22 17 15 12 9 9 9 9 13 18 17 18 20 18 21 18 19 20 21 22 20 21 21 18 18 19
9 7 11 12 15 11 7 4 4 10 6 19 21 23 23 13 16 21 18 16 16 13 12 11 12 13 15 17 17 19 20 24 19 19 21 22 22 22 20 20 19 16 18 19
13 13 11 11 10 16 7 4 5 8 14 16 18 18 19 20 20 18 16 14 11 12 14 14 14 15 16 15 15 17 23 25 20 19 22 19 18 18 14 17 17 14 15 18
8 7 7 7 5 4 6 8 7 8 11 15 18 19 19 19 19 18 17 15 15 15 15 14 14 16 17 17 18 23 37 27 23 18 18 16 15 10 17 15 18 14 14 18
2 2 5 3 6 4 10 7 7 12 12 12 12 12 12 13 13 14 14 15 16 17 18 19 21 22 23 24 27 25 21 23 22 19 18 22 20 28 23 20 13 16 14 15
5 3 2 8 12 11 6 12 12 13 10 10 10 10 12 14 14 15 17 19 20 21 22 23 24 25 26 26 25 27 27 26 25 23 21 28 29 17 21 23 13 16 16 15
1 4 7 4 7 6 12 11 11 11 10 11 13 14 14 15 18 19 21 21 23 24 25 26 26 27 27 26 26 27 26 24 24 24 22 20 23 17 15 19 14 16 19 19
Wind_Direction
129 243 54 45 54 42 326 330 4 66 57 261 315 294 264 172 198 199 201 198 207 210 207 210 215 218 220 225 225 228 234 237 237 238 235 234 232 235 237 239 240 239 241 240
204 87 50 60 2 264 297 280 57 118 57 254 39 61 86 138 182 193 207 207 210 211 213 216 220 223 227 231 230 232 241 242 245 241 241 236 237 238 240 239 240 248 247 244
282 34 314 273 162 249 108 359 13 359 67 188 279 111 112 129 159 176 203 207 208 214 216 219 226 231 231 233 233 236 242 247 252 252 242 240 239 238 238 239 239 244 244 247
295 18 298 279 282 275 100 350 307 295 256 110 312 123 139 128 130 172 186 194 202 207 216 220 226 236 234 237 241 239 245 254 255 252 243 240 240 243 252 239 252 244 256 250
61 323 334 292 22 310 48 312 303 254 202 214 163 271 115 170 174 156 156 167 192 207 214 222 232 239 238 237 241 240 243 253 255 248 256 243 248 248 254 246 252 254 251 265
273 279 280 324 303 267 161 222 169 196 227 121 48 288 171 158 189 180 178 176 187 202 219 226 229 227 228 229 231 231 255 272 267 265 258 261 249 253 251 252 252 254 249 257
281 214 211 255 253 182 224 247 222 239 193 63 30 262 78 110 182 248 207 202 198 210 213 210 207 205 207 218 239 241 261 280 288 285 280 271 273 266 257 260 255 255 255 252
283 156 198 160 305 324 281 321 337 299 352 57 135 305 85 31 320 289 260 245 242 216 213 209 197 194 191 196 236 222 258 325 317 306 297 291 285 272 263 264 260 256 256 254
206 127 129 55 307 276 131 249 12 296 184 262 113 166 258 102 81 341 283 241 232 224 219 207 200 194 187 184 192 204 301 322 317 310 308 304 297 291 280 270 265 265 265 258
94 231 101 93 194 108 309 351 270 228 294 278 161 257 261 35 3 356 336 290 261 233 226 219 206 193 182 174 184 245 272 291 286 290 300 303 302 302 298 289 280 272 268 264
221 265 130 215 25 357 229 224 241 292 295 308 296 343 74 65 352 331 319 310 303 267 231 225 213 193 179 173 181 247 262 272 278 283 294 300 304 306 304 297 286 278 274 266
208 294 274 38 115 242 310 4 293 336 311 292 292 285 101 312 315 302 297 300 302 298 253 232 210 193 180 181 198 230 269 284 289 292 300 302 303 305 302 298 292 286 279 271
188 243 275 188 163 176 246 269 316 295 273 271 297 290 333 316 306 300 305 302 302 293 262 226 205 195 186 185 211 241 274 283 291 292 301 301 301 305 303 307 304 292 282 270
249 269 287 301 338 332 294 269 239 300 293 302 293 310 315 320 297 300 326 330 318 301 260 223 207 195 191 199 223 265 273 279 291 294 300 296 298 299 303 307 303 293 280 269
270 271 280 283 298 278 280 286 289 277 275 288 303 299 309 315 328 323 316 315 316 305 247 212 208 206 204 222 252 272 279 279 288 296 298 296 294 297 301 307 300 288 269 266
228 280 291 287 284 276 277 293 288 282 279 270 285 283 356 337 319 315 313 318 310 297 239 214 213 217 233 246 257 269 279 287 285 286 292 293 295 295 298 305 304 287 272 262
254 287 276 287 300 312 277 283 291 292 292 315 297 358 355 347 344 334 328 322 316 300 245 223 225 237 248 260 277 275 272 278 280 280 291 300 297 291 295 302 301 282 267 259
259 273 288 287 295 272 8 21 350 304 308 19 360 0 351 348 338 327 342 341 325 305 267 250 251 250 256 282 289 276 274 277 283 282 287 298 294 296 294 301 303 287 266 255
260 274 292 280 284 301 292 134 327 316 152 43 357 344 342 339 326 316 10 360 331 307 295 280 269 267 278 295 292 284 289 284 277 281 276 290 292 296 290 295 291 285 265 261
223 269 270 283 289 289 52 80 7 285 245 13 350 342 336 336 317 322 337 331 336 337 318 305 298 298 299 305 308 300 297 290 288 279 274 283 289 293 291 292 292 280 259 263
252 244 263 277 278 279 56 345 329 247 341 342 343 337 333 320 317 317 315 312 317 320 323 320 314 308 308 310 308 309 311 304 296 284 281 284 276 286 288 285 286 279 258 250
264 275 273 264 278 274 29 205 329 351 327 325 320 318 314 313 309 315 326 326 324 319 319 321 319 315 313 317 321 321 310 311 303 288 289 277 264 274 264 274 279 273 262 252
257 285 298 317 4 100 18 332 325 329 316 312 314 313 313 309 312 318 323 328 329 332 333 330 322 317 317 312 311 320 317 308 304 285 275 258 251 283 261 255 275 263 251 247
195 336 261 312 138 346 321 336 334 321 320 324 332 334 339 338 343 342 342 340 337 334 330 325 321 317 314 313 312 307 296 296 295 283 268 258 250 278 266 251 255 256 241 241
359 327 345 278 268 325 288 353 333 333 333 330 331 337 343 342 340 336 333 331 327 322 319 318 314 313 315 315 313 310 304 297 290 277 263 262 274 245 286 240 231 254 238 237
84 321 271 309 14 315 304 327 335 338 338 335 334 333 334 334 330 329 325 322 319 317 319 317 315 313 314 316 315 315 311 303 287 276 267 264 252 249 253 246 237 243 226 230
Height
1517 1509 1504 1506 1507 1509 1507 1506 1506 1499 1503 1505 1501 1502 1499 1504 1511 1513 1516 1520 1524 1526 1528 1531 1534 1537 1539 1540 1541 1541 1542 1544 1546 1547 1549 1550 1551 1553 1554 1555 1555 1555 1556 1558
1512 1508 1508 1508 1508 1508 1505 1504 1502 1499 1500 1503 1498 1494 1496 1501 1507 1511 1513 1515 1518 1521 1523 1526 1529 1531 1533 1535 1536 1536 1536 1538 1540 1542 1543 1546 1549 1550 1551 1551 1550 1550 1551 1552
1515 1507 1508 1508 1505 1506 1499 1503 1502 1503 1500 1499 1498 1499 1496 1502 1505 1508 1510 1512 1514 1516 1518 1521 1524 1525 1527 1527 1529 1531 1532 1534 1535 1536 1539 1540 1542 1543 1544 1543 1544 1544 1546 1547
1506 1506 1508 1505 1504 1500 1496 1501 1500 1500 1499 1502 1495 1515 1500 1495 1496 1502 1505 1508 1509 1511 1514 1516 1518 1519 1521 1523 1526 1526 1527 1527 1528 1530 1532 1533 1534 1533 1532 1536 1541 1542 1542 1542
1506 1505 1505 1505 1502 1501 1505 1500 1497 1497 1497 1496 1500 1497 1498 1495 1498 1495 1495 1500 1504 1507 1509 1511 1513 1515 1517 1519 1520 1521 1521 1521 1523 1524 1524 1527 1527 1528 1530 1533 1531 1532 1535 1535
1505 1503 1505 1499 1500 1500 1501 1500 1498 1495 1491 1509 1505 1501 1499 1489 1490 1489 1491 1495 1499 1502 1506 1508 1509 1511 1512 1514 1514 1516 1515 1516 1517 1518 1519 1518 1521 1522 1525 1526 1525 1525 1526 1526
1499 1496 1499 1502 1500 1498 1500 1491 1502 1512 1504 1514 1502 1503 1495 1483 1486 1487 1487 1491 1494 1499 1502 1504 1505 1506 1507 1509 1510 1511 1511 1512 1513 1513 1513 1513 1513 1514 1515 1515 1518 1518 1518 1518
1505 1515 1498 1499 1497 1498 1492 1492 1504 1534 1517 1508 1502 1508 1493 1484 1488 1491 1492 1493 1493 1496 1497 1498 1501 1503 1504 1504 1506 1508 1509 1509 1510 1509 1509 1509 1508 1508 1508 1508 1508 1509 1510 1510
1504 1505 1496 1498 1497 1496 1498 1500 1488 1498 1496 1508 1494 1490 1479 1484 1486 1488 1489 1490 1490 1492 1493 1495 1498 1500 1500 1500 1502 1504 1505 1506 1508 1508 1506 1505 1504 1503 1503 1502 1501 1501 1499 1500
1499 1508 1494 1496 1496 1497 1496 1493 1502 1491 1526 1528 1498 1502 1495 1489 1488 1488 1486 1485 1486 1487 1491 1493 1494 1496 1498 1498 1498 1501 1503 1504 1505 1505 1503 1502 1500 1499 1498 1496 1495 1493 1492 1491
1493 1496 1499 1494 1497 1501 1495 1493 1496 1495 1501 1517 1517 1498 1480 1488 1489 1488 1486 1484 1485 1485 1487 1489 1491 1493 1494 1496 1495 1497 1499 1501 1501 1500 1499 1498 1496 1495 1492 1490 1488 1487 1485 1484
1493 1489 1503 1498 1498 1499 1496 1498 1494 1508 1512 1503 1512 1507 1480 1486 1487 1487 1486 1485 1484 1484 1483 1486 1488 1490 1490 1491 1493 1493 1495 1496 1496 1495 1494 1493 1492 1490 1487 1485 1483 1480 1478 1476
1494 1494 1505 1500 1497 1498 1499 1494 1496 1494 1494 1506 1514 1504 1477 1480 1483 1482 1481 1480 1481 1481 1481 1482 1485 1487 1487 1489 1490 1490 1491 1492 1492 1491 1490 1488 1487 1485 1482 1479 1475 1473 1472 1470
1500 1489 1499 1509 1501 1496 1503 1494 1494 1496 1503 1498 1494 1489 1479 1478 1479 1478 1478 1480 1478 1476 1477 1478 1482 1483 1484 1486 1488 1487 1488 1488 1488 1487 1486 1484 1482 1480 1477 1474 1470 1468 1466 1465
1495 1499 1494 1493 1491 1494 1496 1496 1494 1495 1493 1500 1490 1489 1479 1477 1477 1478 1479 1477 1476 1474 1474 1476 1479 1481 1482 1484 1484 1484 1484 1484 1483 1483 1482 1480 1477 1475 1473 1470 1466 1464 1461 1460
1494 1503 1498 1500 1489 1487 1495 1490 1488 1486 1484 1483 1483 1483 1475 1481 1480 1478 1476 1474 1473 1473 1473 1475 1477 1478 1480 1480 1480 1481 1480 1479 1479 1478 1477 1475 1472 1470 1468 1465 1462 1460 1458 1457
1493 1494 1501 1506 1491 1492 1503 1482 1478 1478 1477 1478 1488 1483 1484 1484 1483 1479 1476 1474 1471 1471 1472 1473 1475 1476 1477 1477 1477 1477 1477 1475 1474 1473 1472 1470 1468 1465 1462 1460 1457 1456 1455 1454
1493 1501 1500 1504 1497 1518 1482 1482 1482 1484 1481 1486 1486 1488 1487 1485 1482 1478 1475 1474 1472 1471 1471 1472 1473 1473 1474 1474 1473 1472 1471 1470 1469 1467 1466 1464 1462 1460 1457 1455 1452 1451 1451 1451
1491 1492 1498 1509 1498 1485 1479 1480 1487 1488 1485 1490 1491 1488 1485 1483 1480 1475 1475 1474 1473 1471 1470 1470 1470 1470 1470 1469 1468 1467 1465 1464 1463 1460 1459 1457 1456 1454 1452 1450 1448 1446 1447 1447
1492 1495 1498 1496 1508 1511 1481 1486 1489 1489 1494 1490 1491 1488 1485 1482 1478 1472 1475 1475 1473 1471 1469 1469 1468 1467 1466 1464 1462 1461 1460 1458 1456 1455 1453 1450 1449 1447 1445 1444 1443 1442 1441 1442
1490 1493 1497 1491 1492 1483 1485 1488 1489 1500 1494 1489 1488 1487 1485 1484 1484 1480 1477 1474 1472 1471 1469 1467 1466 1464 1462 1460 1458 1456 1454 1452 1451 1449 1446 1443 1441 1439 1438 1436 1436 1435 1436 1438
1490 1491 1487 1481 1498 1500 1490 1488 1495 1494 1492 1491 1490 1489 1487 1484 1481 1477 1475 1473 1471 1469 1467 1465 1462 1460 1458 1457 1454 1452 1451 1447 1444 1442 1438 1437 1435 1435 1434 1430 1429 1429 1431 1433
1495 1485 1490 1487 1486 1493 1493 1494 1495 1495 1494 1492 1490 1487 1484 1481 1478 1476 1474 1472 1470 1468 1465 1463 1460 1457 1455 1452 1449 1444 1442 1444 1437 1434 1432 1430 1428 1427 1423 1428 1423 1424 1426 1428
1487 1493 1490 1492 1488 1493 1493 1493 1495 1495 1493 1490 1488 1485 1483 1480 1478 1476 1473 1471 1468 1466 1463 1460 1457 1454 1449 1446 1442 1439 1437 1437 1431 1426 1425 1421 1418 1415 1419 1421 1419 1417 1421 1423
1490 1493 1491 1490 1489 1492 1490 1495 1495 1492 1490 1488 1487 1484 1483 1480 1478 1476 1473 1470 1467 1464 1461 1458 1453 1449 1444 1441 1436 1433 1429 1426 1422 1418 1415 1413 1412 1409 1413 1417 1410 1410 1415 1419
1492 1492 1492 1487 1495 1498 1496 1495 1494 1491 1489 1488 1486 1483 1481 1479 1477 1474 1471 1468 1464 1461 1457 1453 1448 1444 1439 1434 1429 1425 1420 1416 1413 1410 1408 1406 1404 1406 1404 1409 1404 1405 1409 1412